This is the latest recevied weather packets stored in our database for station/object WB8SKP-WX. If no packets are shown the sender has not sent any weather packets the latest 10 day(s).
| Time | Temp. | Humidity | Pressure | Rain* | Wind** | Luminosity | Snow |
|---|---|---|---|---|---|---|---|
| 1777847242 | 20.56° C | 40% | 995.9 hPa | 0 mm | - | - | - |
| 1777846042 | 20.56° C | 39% | 996.2 hPa | 0 mm | - | - | - |
| 1777844812 | 20° C | 40% | 996.5 hPa | 0 mm | - | - | - |
| 1777843612 | 20° C | 42% | 996.8 hPa | 0 mm | - | - | - |
| 1777842412 | 20° C | 41% | 997.1 hPa | 0 mm | - | - | - |
| 1777841182 | 20° C | 41% | 997.3 hPa | 0 mm | - | - | - |
| 1777839982 | 19.44° C | 41% | 997.9 hPa | 0 mm | - | - | - |
| 1777838752 | 19.44° C | 41% | 998.3 hPa | 0 mm | - | - | - |
| 1777837552 | 18.89° C | 43% | 998.7 hPa | 0 mm | - | - | - |
| 1777836352 | 18.89° C | 45% | 999 hPa | 0 mm | - | - | - |
| 1777835152 | 18.33° C | 43% | 999.6 hPa | 0 mm | - | - | - |
| 1777833922 | 17.78° C | 43% | 999.8 hPa | 0 mm | - | - | - |
| 1777832692 | 17.78° C | 47% | 1000.1 hPa | 0 mm | - | - | - |
| 1777831492 | 17.78° C | 43% | 1000.5 hPa | 0 mm | - | - | - |
| 1777830292 | 17.22° C | 43% | 1000.5 hPa | 0 mm | - | - | - |
| 1777829092 | 17.22° C | 48% | 1000.9 hPa | 0 mm | - | - | - |
| 1777827892 | 16.67° C | 49% | 1001.1 hPa | 0 mm | - | - | - |
| 1777826662 | 16.11° C | 49% | 1001.5 hPa | 0 mm | - | - | - |
| 1777825461 | 15.56° C | 53% | 1001.8 hPa | 0 mm | - | - | - |
| 1777824232 | 15° C | 54% | 1001.9 hPa | 0 mm | - | - | - |
| 1777823031 | 14.44° C | 56% | 1002 hPa | 0 mm | - | - | - |
| 1777821831 | 13.89° C | 60% | 1002 hPa | 0 mm | - | - | - |
| 1777820601 | 13.33° C | 64% | 1002 hPa | 0 mm | - | - | - |
| 1777819401 | 12.78° C | 75% | 1002.1 hPa | 0 mm | - | - | - |
| 1777818171 | 11.67° C | 80% | 1002 hPa | 0 mm | - | - | - |
* Rain latest hour (hover to see other rain measurements)
** Current wind speed in m/s (hover to see current wind gust speed)